This demonstration page uses our WeatherBlox Daily Observations layout. Learn more.

Left ArrowRight Arrow

39.01783, -85.05884

Hourly Observations for April 23, 2020

Temp ( °F °C ) Dew Point ( °F °C ) Humidity (%) Winds ( mph kmh ) Pressure ( in mb ) Visibility ( mi km ) Precip ( " mm )
12:52 am 00:52 Cloudy 58 14.4 38 3.3 48 48 SSW 7 11 29.88 1012 10 16 N/A
1:52 am 01:52 Cloudy 56 13.3 38 3.3 51 51 S 5 7 29.87 1012 10 16 N/A
2:52 am 02:52 Cloudy 55 12.8 39 3.9 55 55 S 7 11 29.84 1011 10 16 N/A
3:52 am 03:52 Cloudy 55 12.8 39 3.9 55 55 S 8 13 29.81 1010 10 16 N/A
4:52 am 04:52 Cloudy 54 12.2 39 3.9 57 57 S 7 11 29.81 1010 10 16 N/A
5:52 am 05:52 Cloudy with Light Rain 53 11.7 41 5 64 64 S 6 9 29.81 1010 10 16 0.00 0.00
6:52 am 06:52 Cloudy with Light Rain 53 11.7 45 7.2 74 74 S 8 13 29.82 1010 10 16 0.00 0.00
7:52 am 07:52 Cloudy with Light Rain 53 11.7 47 8.3 80 80 SE 7 11 29.80 1009 10 16 0.00 0.00
8:35 am 08:35 Cloudy with Light Rain 53 11.7 46 7.8 77 77 SE 9 15 29.80 1009 10 16 0.00 0.00
8:52 am 08:52 Cloudy 53 11.7 46 7.8 77 77 SE 8 13 29.79 1009 10 16 0.00 0.00
9:42 am 09:42 Cloudy with Light Rain 52 11.1 49 9.4 89 89 SSE 7 11 29.81 1009 5 8 0.05 1.27
9:52 am 09:52 Cloudy with Light Rain 52 11.1 49 9.4 89 89 SE 7 11 29.79 1009 5 8 0.06 1.52
10:52 am 10:52 Cloudy with Light Rain 52 11.1 49 9.4 89 89 ESE 9 15 29.76 1008 6 10 0.07 1.78
11:04 am 11:04 Cloudy with Light Rain 52 11.1 49 9.4 89 89 ESE 10 17 29.78 1008 6 10 0.01 0.25
11:35 am 11:35 Cloudy with Light Rain 53 11.7 50 10 89 89 ESE 10 17 29.76 1008 6 10 0.03 0.76
11:52 am 11:52 Cloudy with Light Rain 53 11.7 50 10 89 89 SE 12 19 29.75 1007 5 8 0.03 0.76
12:06 pm 12:06 Cloudy with Light Rain 53 11.7 50 10 89 89 SE 13 20 29.75 1008 3 5 0.01 0.25
12:25 pm 12:25 Cloudy with Rain 53 11.7 50 10 89 89 ESE 9 15 29.75 1008 2 3 0.02 0.51
12:52 pm 12:52 Cloudy with Light Rain 54 12.2 51 10.6 90 90 SE 12 19 29.72 1007 2 3 0.06 1.52
1:52 pm 13:52 Cloudy with Light Rain 54 12.2 52 11.1 93 93 SE 10 17 29.69 1006 2 3 0.07 1.78
2:43 pm 14:43 Cloudy with Rain 54 12.2 51 10.6 90 90 ESE 10 17 29.69 1006 2 3 0.09 2.29
2:52 pm 14:52 Cloudy with Rain 54 12.2 51 10.6 90 90 ESE 8 13 29.67 1005 2 3 0.11 2.79
3:44 pm 15:44 Cloudy with Rain 54 12.2 51 10.6 90 90 ESE 10 17 29.66 1005 5 8 0.18 4.57
3:52 pm 15:52 Cloudy with Light Rain 54 12.2 52 11.1 93 93 E 12 19 29.64 1004 7 11 0.19 4.83
4:25 pm 16:25 Cloudy 54 12.2 51 10.6 90 90 E 14 22 29.63 1003 10 16 0.00 0.00
5:36 pm 17:36 Cloudy 55 12.8 51 10.6 87 87 E 10 17 29.62 1003 10 16 N/A
5:52 pm 17:52 Cloudy with Light Rain 55 12.8 52 11.1 90 90 ESE 9 15 29.61 1003 10 16 0.00 0.00
6:52 pm 18:52 Cloudy with Light Rain 55 12.8 52 11.1 90 90 ESE 8 13 29.60 1002 8 13 0.00 0.00
7:52 pm 19:52 Cloudy 55 12.8 52 11.1 90 90 E 9 15 29.59 1002 10 16 0.01 0.25
8:52 pm 20:52 Cloudy 55 12.8 52 11.1 90 90 ENE 6 9 29.59 1002 10 16 N/A
9:52 pm 21:52 Cloudy 55 12.8 52 11.1 90 90 NE 6 9 29.60 1002 10 16 N/A
10:50 pm 22:50 Cloudy with Drizzle 55 13 52 11 88 88 NNE 7 11 29.62 1003 6 10 0.00 0.00
10:52 pm 22:52 Cloudy with Drizzle 55 12.8 52 11.1 90 90 NNE 7 11 29.61 1003 6 10 0.00 0.00
11:23 pm 23:23 Cloudy with Mist and Fog 55 12.8 52 11.1 90 90 N 8 13 29.62 1003 5 8 0.00 0.00
11:52 pm 23:52 Cloudy with Mist and Fog 55 12.8 52 11.1 90 90 N 7 11 29.61 1003 6 10 0.00 0.00

Powered by AerisWeather